Time,TemperatureF,DewpointF,PressureIn,WindDirection,WindDirectionDegrees,WindSpeedMPH,WindSpeedGustMPH,Humidity,HourlyPrecipIn,Conditions,Clouds,dailyrainin,SoftwareType,DateUTC
2013-06-24 00:05:00,71.7,70.0,30.13,NE,45,0.0,0.0,94,0.00,,,0.00,weatherlink.com 1.10,2013-06-24 04:05:00,
2013-06-24 00:21:00,71.4,70.0,30.13,NE,45,0.0,0.0,94,0.00,,,0.00,weatherlink.com 1.10,2013-06-24 04:21:00,
2013-06-24 00:36:00,71.1,69.0,30.13,NE,45,0.0,0.0,94,0.00,,,0.00,weatherlink.com 1.10,2013-06-24 04:36:00,
2013-06-24 00:51:00,70.8,69.0,30.12,NE,45,0.0,0.0,95,0.00,,,0.00,weatherlink.com 1.10,2013-06-24 04:51:00,
2013-06-24 01:06:00,70.5,69.0,30.13,NE,45,0.0,0.0,95,0.00,,,0.00,weatherlink.com 1.10,2013-06-24 05:06:00,
2013-06-24 01:21:00,70.1,69.0,30.12,NE,45,0.0,0.0,95,0.00,,,0.00,weatherlink.com 1.10,2013-06-24 05:21:00,
2013-06-24 02:06:00,69.1,68.0,30.12,NE,45,0.0,0.0,96,0.00,,,0.00,weatherlink.com 1.10,2013-06-24 06:06:00,
2013-06-24 02:21:00,68.8,68.0,30.12,NE,45,0.0,0.0,96,0.00,,,0.00,weatherlink.com 1.10,2013-06-24 06:21:00,
2013-06-24 02:36:00,68.5,68.0,30.11,NE,45,0.0,0.0,97,0.00,,,0.00,weatherlink.com 1.10,2013-06-24 06:36:00,
2013-06-24 02:51:00,68.3,67.0,30.11,NE,45,0.0,0.0,96,0.00,,,0.00,weatherlink.com 1.10,2013-06-24 06:51:00,
2013-06-24 03:06:00,68.2,67.0,30.11,NE,45,0.0,0.0,97,0.00,,,0.00,weatherlink.com 1.10,2013-06-24 07:06:00,
2013-06-24 03:36:00,67.7,67.0,30.11,NE,45,0.0,0.0,97,0.00,,,0.00,weatherlink.com 1.10,2013-06-24 07:36:00,
2013-06-24 03:51:00,67.6,67.0,30.11,NE,45,0.0,0.0,97,0.00,,,0.00,weatherlink.com 1.10,2013-06-24 07:51:00,
2013-06-24 04:06:00,67.6,67.0,30.11,NE,45,0.0,0.0,97,0.00,,,0.00,weatherlink.com 1.10,2013-06-24 08:06:00,
2013-06-24 04:51:00,66.8,66.0,30.12,NE,45,0.0,0.0,97,0.00,,,0.00,weatherlink.com 1.10,2013-06-24 08:51:00,
2013-06-24 05:06:00,66.7,66.0,30.12,NE,45,0.0,0.0,98,0.00,,,0.00,weatherlink.com 1.10,2013-06-24 09:06:00,
2013-06-24 05:21:00,66.7,66.0,30.12,NE,45,0.0,0.0,98,0.00,,,0.00,weatherlink.com 1.10,2013-06-24 09:21:00,
2013-06-24 05:38:00,66.6,66.0,30.13,NE,45,0.0,0.0,98,0.00,,,0.00,weatherlink.com 1.10,2013-06-24 09:38:00,
2013-06-24 05:51:00,66.6,66.0,30.13,NE,45,0.0,0.0,98,0.00,,,0.00,weatherlink.com 1.10,2013-06-24 09:51:00,
2013-06-24 06:06:00,66.3,66.0,30.13,NE,45,0.0,0.0,97,0.00,,,0.00,weatherlink.com 1.10,2013-06-24 10:06:00,
2013-06-24 06:21:00,66.1,66.0,30.14,NE,45,0.0,0.0,98,0.00,,,0.00,weatherlink.com 1.10,2013-06-24 10:21:00,
2013-06-24 06:36:00,66.0,66.0,30.14,NE,45,0.0,0.0,98,0.00,,,0.00,weatherlink.com 1.10,2013-06-24 10:36:00,
2013-06-24 06:51:00,66.0,66.0,30.15,NE,44,0.0,0.0,98,0.00,,,0.00,weatherlink.com 1.10,2013-06-24 10:51:00,
2013-06-24 07:06:00,66.3,66.0,30.15,NE,44,0.0,0.0,98,0.00,,,0.00,weatherlink.com 1.10,2013-06-24 11:06:00,
2013-06-24 07:36:00,67.0,67.0,30.16,NE,44,0.0,0.0,98,0.00,,,0.00,weatherlink.com 1.10,2013-06-24 11:36:00,
2013-06-24 07:51:00,67.3,67.0,30.16,NE,45,0.0,0.0,98,0.00,,,0.00,weatherlink.com 1.10,2013-06-24 11:51:00,
2013-06-24 08:21:00,68.8,68.0,30.17,NE,45,0.0,0.0,98,0.00,,,0.00,weatherlink.com 1.10,2013-06-24 12:21:00,
2013-06-24 08:36:00,70.0,69.0,30.18,NE,44,0.0,0.0,98,0.00,,,0.00,weatherlink.com 1.10,2013-06-24 12:36:00,
2013-06-24 08:51:00,71.6,70.0,30.18,NE,45,0.0,0.0,94,0.00,,,0.00,weatherlink.com 1.10,2013-06-24 12:51:00,
2013-06-24 09:06:00,72.7,71.0,30.18,NE,44,0.0,0.0,93,0.00,,,0.00,weatherlink.com 1.10,2013-06-24 13:06:00,
2013-06-24 09:52:00,74.6,72.0,30.19,NE,54,0.0,1.0,90,0.00,,,0.00,weatherlink.com 1.10,2013-06-24 13:52:00,
2013-06-24 10:22:00,76.2,72.0,30.19,NW,311,0.0,1.0,87,0.00,,,0.00,weatherlink.com 1.10,2013-06-24 14:22:00,
2013-06-24 10:37:00,76.8,72.0,30.18,ESE,117,0.0,1.0,85,0.00,,,0.00,weatherlink.com 1.10,2013-06-24 14:37:00,
2013-06-24 10:52:00,78.3,73.0,30.18,ESE,115,0.0,1.0,83,0.00,,,0.00,weatherlink.com 1.10,2013-06-24 14:52:00,
2013-06-24 11:22:00,79.6,73.0,30.19,ESE,111,0.0,1.0,79,0.00,,,0.00,weatherlink.com 1.10,2013-06-24 15:22:00,
2013-06-24 11:37:00,80.8,73.0,30.19,West,275,0.0,1.0,78,0.00,,,0.00,weatherlink.com 1.10,2013-06-24 15:37:00,
2013-06-24 11:52:00,81.3,72.0,30.18,ENE,63,0.0,2.0,74,0.00,,,0.00,weatherlink.com 1.10,2013-06-24 15:52:00,
2013-06-24 12:07:00,81.8,72.0,30.18,West,266,0.0,2.0,73,0.00,,,0.00,weatherlink.com 1.10,2013-06-24 16:07:00,
2013-06-24 12:37:00,82.8,73.0,30.17,ESE,110,1.0,3.0,71,0.00,,,0.00,weatherlink.com 1.10,2013-06-24 16:37:00,
2013-06-24 13:07:00,84.8,73.0,30.15,East,99,0.0,2.0,68,0.00,,,0.00,weatherlink.com 1.10,2013-06-24 17:07:00,
2013-06-24 13:37:00,86.5,73.0,30.14,NW,316,0.0,3.0,64,0.00,,,0.00,weatherlink.com 1.10,2013-06-24 17:37:00,
2013-06-24 13:52:00,85.7,73.0,30.13,WNW,287,0.0,3.0,65,0.00,,,0.00,weatherlink.com 1.10,2013-06-24 17:52:00,
2013-06-24 14:07:00,85.5,71.0,30.13,West,266,0.0,4.0,63,0.00,,,0.00,weatherlink.com 1.10,2013-06-24 18:07:00,
2013-06-24 14:52:00,87.0,72.0,30.10,NNW,338,0.0,1.0,62,0.00,,,0.00,weatherlink.com 1.10,2013-06-24 18:52:00,
2013-06-24 15:07:00,87.8,71.0,30.10,SE,135,0.0,2.0,58,0.00,,,0.00,weatherlink.com 1.10,2013-06-24 19:07:00,
2013-06-24 15:22:00,88.1,71.0,30.10,North,7,0.0,1.0,58,0.00,,,0.00,weatherlink.com 1.10,2013-06-24 19:22:00,
2013-06-24 15:37:00,88.9,72.0,30.10,West,265,0.0,2.0,57,0.00,,,0.00,weatherlink.com 1.10,2013-06-24 19:37:00,
2013-06-24 15:53:00,89.2,72.0,30.09,ESE,110,0.0,1.0,57,0.00,,,0.00,weatherlink.com 1.10,2013-06-24 19:53:00,
2013-06-24 16:08:00,89.6,71.0,30.09,NNW,335,1.0,2.0,54,0.00,,,0.00,weatherlink.com 1.10,2013-06-24 20:08:00,
2013-06-24 16:23:00,89.7,71.0,30.09,SE,129,1.0,2.0,54,0.00,,,0.00,weatherlink.com 1.10,2013-06-24 20:23:00,
2013-06-24 16:38:00,89.6,71.0,30.08,SE,141,0.0,2.0,54,0.00,,,0.00,weatherlink.com 1.10,2013-06-24 20:38:00,
2013-06-24 16:53:00,88.6,70.0,30.07,West,272,0.0,1.0,55,0.00,,,0.00,weatherlink.com 1.10,2013-06-24 20:53:00,
2013-06-24 17:08:00,89.5,71.0,30.07,NW,316,1.0,1.0,55,0.00,,,0.00,weatherlink.com 1.10,2013-06-24 21:08:00,
2013-06-24 17:23:00,88.6,70.0,30.07,NNW,330,0.0,2.0,55,0.00,,,0.00,weatherlink.com 1.10,2013-06-24 21:23:00,
2013-06-24 17:38:00,89.0,71.0,30.06,ESE,112,0.0,2.0,55,0.00,,,0.00,weatherlink.com 1.10,2013-06-24 21:38:00,
2013-06-24 18:08:00,88.6,70.0,30.05,West,265,1.0,3.0,54,0.00,,,0.00,weatherlink.com 1.10,2013-06-24 22:08:00,
2013-06-24 18:53:00,84.4,72.0,30.05,NW,305,0.0,1.0,67,0.00,,,0.00,weatherlink.com 1.10,2013-06-24 22:53:00,
2013-06-24 19:23:00,82.8,73.0,30.07,WNW,300,0.0,1.0,71,0.00,,,0.00,weatherlink.com 1.10,2013-06-24 23:23:00,
2013-06-24 19:38:00,82.5,73.0,30.06,ESE,117,1.0,2.0,73,0.00,,,0.00,weatherlink.com 1.10,2013-06-24 23:38:00,
2013-06-24 19:53:00,81.9,73.0,30.07,West,271,0.0,2.0,74,0.00,,,0.00,weatherlink.com 1.10,2013-06-24 23:53:00,
2013-06-24 20:08:00,81.3,73.0,30.07,NNE,27,0.0,2.0,75,0.00,,,0.00,weatherlink.com 1.10,2013-06-25 00:08:00,
2013-06-24 20:25:00,80.4,72.0,30.07,West,264,0.0,4.0,75,0.00,,,0.00,weatherlink.com 1.10,2013-06-25 00:25:00,
2013-06-24 20:38:00,79.6,72.0,30.08,West,276,0.0,0.0,77,0.00,,,0.00,weatherlink.com 1.10,2013-06-25 00:38:00,
2013-06-24 20:53:00,78.6,71.0,30.07,West,276,0.0,1.0,77,0.00,,,0.00,weatherlink.com 1.10,2013-06-25 00:53:00,
2013-06-24 21:08:00,77.7,71.0,30.08,ENE,70,0.0,1.0,79,0.00,,,0.00,weatherlink.com 1.10,2013-06-25 01:08:00,
2013-06-24 21:23:00,76.7,71.0,30.08,ENE,70,0.0,1.0,82,0.00,,,0.00,weatherlink.com 1.10,2013-06-25 01:23:00,
2013-06-24 21:38:00,75.6,71.0,30.08,ENE,70,0.0,1.0,84,0.00,,,0.00,weatherlink.com 1.10,2013-06-25 01:38:00,
2013-06-24 21:53:00,75.0,71.0,30.09,ENE,70,0.0,0.0,86,0.00,,,0.00,weatherlink.com 1.10,2013-06-25 01:53:00,
2013-06-24 22:38:00,73.7,70.0,30.11,ENE,70,0.0,1.0,89,0.00,,,0.00,weatherlink.com 1.10,2013-06-25 02:38:00,
2013-06-24 22:53:00,73.5,71.0,30.11,ENE,70,0.0,0.0,90,0.00,,,0.00,weatherlink.com 1.10,2013-06-25 02:53:00,
2013-06-24 23:08:00,72.8,70.0,30.11,ENE,70,0.0,0.0,91,0.00,,,0.00,weatherlink.com 1.10,2013-06-25 03:08:00,
2013-06-24 23:23:00,72.3,70.0,30.11,ENE,71,0.0,0.0,92,0.00,,,0.00,weatherlink.com 1.10,2013-06-25 03:23:00,
2013-06-24 23:53:00,71.5,70.0,30.11,ENE,72,0.0,1.0,94,0.00,,,0.00,weatherlink.com 1.10,2013-06-25 03:53:00,